1484859600.45,13315,4.06,74144.8,-9.75,-39.41,-39.65,0,*58
1484859601.71,13316,4.06,74144.5,-9.75,-39.41,-39.79,0,*56
1484859602.98,13317,4.06,74142.3,-9.75,-39.59,-39.79,0,*5E
1484859604.23,13318,4.06,74140.3,-9.73,-39.41,-39.65,0,*53
1484859605.44,13319,4.06,74142.8,-9.75,-39.09,-39.47,0,*58
1484859606.66,13320,4.06,74144.3,-9.75,-39.09,-39.41,0,*54
1484859607.91,13321,4.06,74144.0,-9.75,-39.03,-39.41,0,*5F
1484859609.13,13322,4.06,74140.3,-9.75,-39.23,-39.47,0,*58
1484859610.39,13323,4.06,74144.8,-9.75,-39.23,-39.41,0,*5F
1484859611.66,13324,4.06,74140.0,-9.73,-39.29,-39.59,0,*5D
1484859612.95,13325,4.06,74140.3,-9.77,-39.53,-39.71,0,*5F
1484859614.19,13326,4.06,74140.5,-9.77,-39.47,-39.65,0,*5C
1484859615.42,13327,4.06,74144.5,-9.77,-39.35,-39.65,0,*58
1484859616.67,13328,4.06,74140.8,-9.77,-39.35,-39.53,0,*52
1484859617.96,13329,4.06,74146.5,-9.77,-39.15,-39.53,0,*51
1484859619.24,13330,4.06,74140.8,-9.77,-39.15,-39.53,0,*59
1484859620.48,13331,4.06,74144.3,-9.77,-39.09,-39.47,0,*50
1484859621.71,13332,4.06,74146.5,-9.77,-39.09,-39.35,0,*56
1484859622.96,13333,4.06,74146.0,-9.75,-39.03,-39.41,0,*5C
1484859624.19,13334,4.06,74142.8,-9.75,-39.09,-39.41,0,*51
1484859625.44,13335,4.06,74140.8,-9.75,-39.03,-39.41,0,*5A
1484859626.69,13336,4.06,74144.5,-9.75,-38.91,-39.29,0,*5D
1484859627.92,13337,4.06,74146.0,-9.77,-39.09,-39.35,0,*53
1484859629.18,13338,4.06,74144.3,-9.77,-39.15,-39.47,0,*54
1484859630.43,13339,4.06,74140.5,-9.77,-39.35,-39.53,0,*52
1484859631.66,13340,4.06,74144.8,-9.77,-39.47,-39.85,0,*52
1484859632.9,13341,4.06,74142.5,-9.79,-39.47,-39.71,0,*56
1484859634.18,13342,4.06,74140.3,-9.77,-39.15,-39.53,0,*5C
1484859635.46,13343,4.06,74136.8,-9.77,-38.91,-39.29,0,*5D
1484859636.71,13344,4.06,74144.3,-9.77,-38.97,-39.29,0,*5C
1484859637.95,13345,4.06,74140.3,-9.77,-39.35,-39.65,0,*5C
1484859639.2,13346,4.06,74136.8,-9.77,-39.35,-39.53,0,*5A
1484859640.48,13347,4.06,74146.5,-9.77,-38.91,-39.29,0,*59
1484859641.77,13348,4.06,74144.0,-9.77,-38.91,-39.15,0,*59
1484859643.05,13349,4.06,74144.3,-9.77,-38.91,-39.15,0,*58
1484859644.3,13350,4.06,74142.5,-9.79,-38.91,-39.15,0,*5E
1484859645.54,13351,4.06,74142.8,-9.77,-39.09,-39.47,0,*56
1484859646.79,13352,4.06,74142.3,-9.77,-39.15,-39.47,0,*58
1484859648.07,13353,4.06,74142.5,-9.77,-39.29,-39.53,0,*53
1484859649.32,13354,4.06,74146.5,-9.77,-38.97,-39.15,0,*52
1484859650.58,13355,4.06,74142.5,-9.77,-38.97,-39.15,0,*53
1484859651.8,13356,4.06,74142.0,-9.77,-38.97,-39.35,0,*52
1484859653.03,13357,4.06,74144.3,-9.77,-39.09,-39.47,0,*50
1484859654.29,13358,4.06,74142.3,-9.77,-39.15,-39.47,0,*52
1484859655.52,13359,4.06,74146.0,-9.77,-39.09,-39.35,0,*5B
1484859656.75,13360,4.06,74146.5,-9.77,-39.09,-39.35,0,*51
1484859658.01,13361,4.06,74142.5,-9.77,-39.15,-39.47,0,*58
1484859659.24,13362,4.06,74146.5,-9.77,-39.09,-39.35,0,*53
1484859660.53,13363,4.06,74142.8,-9.77,-38.91,-39.15,0,*50
1484859661.79,13364,4.06,74140.0,-9.77,-38.79,-39.09,0,*5C
1484859663.05,13365,4.06,74140.0,-9.77,-39.15,-39.47,0,*5C
1484859664.27,13366,4.06,74142.3,-9.77,-38.97,-39.35,0,*51
1484859665.49,13367,4.06,74142.8,-9.77,-38.97,-39.35,0,*50
1484859666.78,13368,4.06,74140.8,-9.77,-38.91,-39.15,0,*5B
1484859668.06,13369,4.06,74140.3,-9.77,-38.79,-39.15,0,*5C
1484859669.3,13370,4.06,74142.5,-9.79,-38.79,-39.09,0,*57
1484859670.53,13371,4.06,74142.0,-9.77,-38.73,-38.97,0,*54
1484859671.81,13372,4.06,74138.8,-9.77,-38.67,-38.91,0,*54
1484859673.06,13373,4.06,74142.5,-9.77,-38.97,-39.29,0,*58
1484859674.34,13374,4.06,74142.3,-9.77,-38.91,-39.15,0,*56
1484859675.63,13375,4.06,74140.8,-9.77,-38.91,-39.15,0,*57
1484859676.91,13376,4.06,74142.5,-9.77,-38.79,-39.29,0,*5D
1484859678.14,13377,4.06,74138.0,-9.75,-39.09,-39.41,0,*56
1484859679.39,13378,4.06,74142.8,-9.75,-39.23,-39.29,0,*5F
1484859680.62,13379,4.06,74138.3,-9.75,-39.09,-39.41,0,*58
1484859681.88,13380,4.06,74142.8,-9.77,-38.79,-38.97,0,*50
1484859683.14,13381,4.06,74140.3,-9.77,-38.73,-38.91,0,*5D
1484859684.39,13382,4.06,74140.5,-9.75,-38.67,-38.91,0,*59
1484859685.59,13383,4.06,74140.8,-9.75,-38.73,-39.09,0,*5D
1484859686.82,13384,4.06,74142.5,-9.75,-38.73,-38.91,0,*5A
1484859688.04,13385,4.06,74140.8,-9.75,-38.73,-38.91,0,*5B
1484859689.25,13386,4.06,74140.5,-9.75,-38.73,-39.09,0,*58
1484859690.49,13387,4.06,74144.5,-9.75,-38.67,-39.03,0,*56
1484859691.74,13388,4.06,74144.3,-9.73,-38.73,-39.23,0,*58
1484859692.97,13389,4.06,74142.3,-9.75,-38.85,-39.23,0,*56
1484859694.22,13390,4.06,74140.3,-9.73,-38.85,-39.23,0,*58
1484859695.45,13391,4.06,74134.8,-9.75,-39.09,-39.41,0,*5E
1484859696.66,13392,4.06,74140.5,-9.75,-38.85,-39.09,0,*54
1484859697.91,13393,4.06,74142.5,-9.73,-38.73,-39.03,0,*50
1484859699.14,13394,4.06,74140.5,-9.75,-38.85,-39.23,0,*5A
1484859700.39,13395,4.06,74140.3,-9.73,-38.73,-39.03,0,*56
1484859701.64,13396,4.06,74136.0,-9.73,-38.67,-38.85,0,*5F
1484859702.86,13397,4.06,74142.5,-9.75,-38.67,-38.85,0,*58
1484859704.09,13398,4.06,74142.5,-9.73,-38.73,-39.09,0,*51
1484859705.37,13399,4.06,74142.8,-9.73,-38.91,-39.23,0,*54
1484859706.6,13400,4.06,74142.0,-9.73,-38.85,-39.09,0,*5E
1484859707.83,13401,4.06,74142.0,-9.75,-38.73,-38.91,0,*50
1484859709.08,13402,4.06,74136.8,-9.73,-38.85,-39.23,0,*54
1484859710.34,13403,4.06,74140.8,-9.73,-38.85,-39.23,0,*55
1484859711.61,13404,4.06,74138.5,-9.73,-38.91,-39.29,0,*5D
1484859712.88,13405,4.06,74144.5,-9.73,-39.03,-39.29,0,*56
1484859714.14,13406,4.06,74140.8,-9.73,-38.73,-38.91,0,*51
1484859715.41,13407,4.06,74138.0,-9.73,-39.03,-39.23,0,*5E
1484859716.68,13408,4.06,74140.3,-9.73,-38.91,-39.23,0,*5B
1484859717.92,13409,4.06,74142.0,-9.73,-38.85,-39.09,0,*57
1484859719.15,13410,4.06,74140.8,-9.73,-38.85,-39.09,0,*5F
1484859720.43,13411,4.06,74142.8,-9.73,-38.91,-39.23,0,*53
1484859721.66,13412,4.06,74142.3,-9.73,-38.85,-39.09,0,*5D
1484859722.89,13413,4.06,74142.8,-9.75,-38.85,-39.23,0,*52
1484859724.13,13414,4.06,74140.5,-9.73,-38.85,-39.09,0,*5B
1484859725.4,13415,4.06,74140.5,-9.73,-38.91,-39.41,0,*53
1484859726.67,13416,4.06,74142.5,-9.73,-38.91,-39.23,0,*54
1484859727.87,13417,4.06,74140.5,-9.67,-38.85,-39.35,0,*52
1484859729.1,13418,4.06,74146.0,-9.71,-38.85,-39.23,0,*5D
1484859730.32,13419,4.06,74138.5,-9.71,-38.97,-39.15,0,*5A
1484859731.54,13420,4.06,74142.3,-9.71,-38.97,-39.23,0,*55
1484859732.75,13421,4.06,74138.5,-9.71,-39.03,-39.35,0,*5F
1484859734.01,13422,4.06,74144.0,-9.73,-39.09,-39.29,0,*59
1484859735.26,13423,4.06,74142.8,-9.73,-38.85,-39.23,0,*57
1484859736.52,13424,4.06,74142.5,-9.73,-39.09,-39.41,0,*51
1484859737.79,13425,4.06,74142.8,-9.73,-38.91,-39.23,0,*54
1484859739.04,13426,4.06,74142.0,-9.73,-38.73,-38.91,0,*53
1484859740.31,13427,4.06,74138.8,-9.73,-38.91,-39.23,0,*56
1484859741.56,13428,4.06,74138.3,-9.75,-39.03,-39.41,0,*51
1484859742.82,13429,4.06,74136.8,-9.73,-39.09,-39.41,0,*5C
1484859744.07,13430,4.06,74140.8,-9.73,-38.85,-39.23,0,*55
1484859745.35,13431,4.06,74142.3,-9.73,-38.91,-39.29,0,*5B
1484859746.6,13432,4.06,74136.5,-9.73,-38.73,-38.91,0,*56
1484859747.83,13433,4.06,74138.5,-9.73,-38.85,-39.09,0,*5E
1484859749.11,13434,4.06,74136.8,-9.73,-38.91,-39.29,0,*5E
1484859750.36,13435,4.06,74142.5,-9.73,-39.09,-39.29,0,*5F
1484859751.62,13436,4.06,74142.5,-9.73,-38.85,-39.23,0,*53
1484859752.89,13437,4.06,74136.0,-9.73,-38.67,-38.91,0,*56
1484859754.15,13438,4.06,74140.8,-9.73,-38.85,-39.29,0,*57
1484859755.4,13439,4.06,74142.5,-9.73,-39.09,-39.41,0,*5D
1484859756.65,13440,4.06,74138.8,-9.73,-39.09,-39.41,0,*53
1484859757.89,13441,4.06,74142.3,-9.73,-38.85,-39.09,0,*5B
1484859759.14,13442,4.06,74140.5,-9.73,-38.85,-39.23,0,*50
1484859760.42,13443,4.06,74138.3,-9.73,-39.03,-39.29,0,*54
1484859761.65,13444,4.06,74142.0,-9.75,-38.91,-39.09,0,*5D
1484859762.92,13445,4.06,74142.8,-9.73,-38.91,-39.29,0,*58
1484859764.19,13446,4.06,74142.3,-9.73,-39.03,-39.41,0,*5F
1484859765.45,13447,4.06,74142.3,-9.73,-39.09,-39.41,0,*54
1484859766.72,13448,4.06,74142.3,-9.73,-39.03,-39.29,0,*5F
1484859767.95,13449,4.06,74140.8,-9.71,-38.85,-39.15,0,*5C
1484859769.18,13450,4.06,74142.3,-9.71,-38.85,-39.15,0,*54
1484859770.46,13451,4.06,74144.0,-9.73,-38.91,-39.29,0,*5D
1484859771.73,13452,4.06,74142.5,-9.73,-39.03,-39.29,0,*54
1484859772.97,13453,4.06,74140.8,-9.73,-38.85,-39.09,0,*58
1484859774.22,13454,4.06,74140.0,-9.73,-38.85,-39.29,0,*5D
1484859775.48,13455,4.06,74136.5,-9.73,-39.09,-39.41,0,*57
1484859776.75,13456,4.06,74140.0,-9.73,-39.03,-39.29,0,*50
1484859778.0,13457,4.06,74138.0,-9.73,-38.85,-39.23,0,*54
1484859779.26,13458,4.06,74142.8,-9.73,-39.09,-39.41,0,*5A
1484859780.51,13459,4.06,74142.3,-9.73,-39.09,-39.41,0,*5B
1484859781.79,13460,4.06,74134.5,-9.73,-39.03,-39.29,0,*55
1484859783.06,13461,4.06,74142.3,-9.73,-38.91,-39.23,0,*54
1484859784.32,13462,4.13,74146.8,-9.73,-38.85,-39.23,0,*52
1484859785.59,13463,4.06,74142.0,-9.73,-39.03,-39.29,0,*56
1484859786.84,13464,4.06,74138.5,-9.73,-39.09,-39.41,0,*55
1484859788.12,13465,4.06,74142.5,-9.73,-39.23,-39.59,0,*55
1484859789.4,13466,4.06,74142.8,-9.73,-39.03,-39.29,0,*53
1484859790.67,13467,4.06,74142.0,-9.73,-38.91,-39.23,0,*52
1484859791.88,13468,4.06,74142.0,-9.75,-38.85,-39.09,0,*56
1484859793.12,13469,4.06,74144.0,-9.73,-38.85,-39.09,0,*51
1484859794.39,13470,4.06,74140.8,-9.73,-38.91,-39.23,0,*54
1484859795.67,13471,4.06,74138.5,-9.73,-38.91,-39.23,0,*55
1484859796.91,13472,4.06,74142.3,-9.73,-38.73,-39.03,0,*58
1484859798.19,13473,4.06,74140.0,-9.73,-38.91,-39.23,0,*57
1484859799.44,13474,4.06,74140.5,-9.73,-39.09,-39.41,0,*54
1484859800.69,13475,4.06,74138.5,-9.73,-38.91,-39.09,0,*59
1484859801.88,13476,4.06,74138.8,-9.71,-38.97,-39.35,0,*51
1484859803.16,13477,4.06,74142.0,-9.73,-38.91,-39.23,0,*53
1484859804.34,13478,4.06,74138.8,-9.71,-38.97,-39.35,0,*5F
1484859805.6,13479,4.06,74140.5,-9.73,-38.91,-39.09,0,*55
1484859806.83,13480,4.06,74142.8,-9.73,-38.85,-39.09,0,*56
1484859808.11,13481,4.06,74136.5,-9.73,-38.91,-39.23,0,*5A
1484859809.38,13482,4.06,74140.8,-9.73,-38.91,-39.29,0,*53
1484859810.66,13483,4.06,74136.8,-9.73,-38.91,-39.41,0,*5C
1484859811.85,13484,4.06,74140.5,-9.71,-38.85,-39.35,0,*5F
1484859813.07,13485,4.06,74142.3,-9.71,-38.97,-39.23,0,*5A
1484859814.29,13486,4.06,74138.5,-9.71,-38.97,-39.23,0,*59
1484859815.51,13487,4.06,74138.8,-9.71,-39.15,-39.35,0,*54
1484859816.77,13488,4.06,74136.3,-9.71,-39.15,-39.41,0,*58
1484859818.04,13489,4.06,74138.8,-9.73,-39.03,-39.41,0,*5C
1484859819.31,13490,4.06,74134.0,-9.73,-39.03,-39.41,0,*54
1484859820.57,13491,4.06,74138.0,-9.73,-39.09,-39.29,0,*51
1484859821.82,13492,4.13,74142.8,-9.71,-39.03,-39.23,0,*50
1484859823.04,13493,4.06,74142.3,-9.71,-39.15,-39.35,0,*51
1484859824.31,13494,4.06,74140.5,-9.73,-39.03,-39.41,0,*50
1484859825.59,13495,4.06,74140.5,-9.73,-39.03,-39.23,0,*55
1484859826.86,13496,4.06,74140.0,-9.73,-38.91,-39.23,0,*5C
1484859828.13,13497,4.06,74140.5,-9.73,-39.03,-39.41,0,*53
1484859829.39,13498,4.06,74142.0,-9.73,-39.09,-39.41,0,*56
1484859830.61,13499,4.06,74136.0,-9.71,-38.97,-39.15,0,*52
1484859831.86,13500,4.13,74140.8,-9.71,-38.79,-39.15,0,*53
1484859833.09,13501,4.06,74140.3,-9.71,-38.85,-39.15,0,*51
1484859834.35,13502,4.06,74142.0,-9.73,-39.09,-39.23,0,*50
1484859835.6,13503,4.06,74138.8,-9.73,-39.09,-39.41,0,*55
1484859836.88,13504,4.06,74138.5,-9.73,-38.91,-39.29,0,*5C
1484859838.11,13505,4.13,74142.0,-9.71,-38.85,-39.15,0,*55
1484859839.34,13506,4.06,74144.5,-9.71,-38.85,-39.15,0,*56
1484859840.57,13507,4.06,74136.8,-9.71,-38.85,-39.15,0,*57
1484859841.82,13508,4.06,74140.0,-9.71,-38.79,-39.03,0,*5C
1484859843.07,13509,4.06,74142.0,-9.71,-38.79,-39.03,0,*5D
1484859844.32,13510,4.06,74136.5,-9.71,-38.79,-39.23,0,*57
1484859845.54,13511,4.06,74142.5,-9.71,-39.03,-39.35,0,*5D
1484859846.79,13512,4.06,74138.8,-9.73,-39.09,-39.41,0,*55
1484859848.06,13513,4.06,74140.5,-9.73,-39.23,-39.41,0,*5C
1484859849.34,13514,4.06,74138.8,-9.73,-39.23,-39.41,0,*5B
1484859850.59,13515,4.06,74136.8,-9.73,-38.85,-39.23,0,*53
1484859851.84,13516,4.06,74136.0,-9.75,-39.03,-39.29,0,*53
1484859853.09,13517,4.06,74138.8,-9.75,-39.03,-39.29,0,*52
1484859854.34,13518,4.06,74140.8,-9.71,-38.79,-39.03,0,*5D
1484859855.56,13519,4.06,74138.0,-9.71,-38.97,-39.15,0,*5B
1484859856.81,13520,4.06,74136.3,-9.71,-38.79,-39.03,0,*56
1484859858.06,13521,4.06,74138.8,-9.71,-38.79,-39.03,0,*57
1484859859.29,13522,4.13,74138.8,-9.71,-38.85,-39.23,0,*55
1484859860.54,13523,4.06,74138.0,-9.71,-39.15,-39.53,0,*5B
1484859861.76,13524,4.06,74136.3,-9.71,-39.23,-39.35,0,*59
1484859862.98,13525,4.06,74138.8,-9.71,-39.03,-39.35,0,*5A
1484859864.17,13526,4.06,74138.8,-9.71,-38.97,-39.35,0,*55
1484859865.36,13527,4.06,74138.3,-9.71,-38.97,-39.35,0,*54
1484859866.58,13528,4.06,74136.5,-9.71,-38.85,-39.23,0,*5F
1484859867.81,13529,4.13,74142.0,-9.71,-38.85,-39.03,0,*5C
1484859869.03,13530,4.06,74138.8,-9.71,-39.03,-39.35,0,*5E
1484859870.26,13531,4.06,74138.5,-9.71,-38.85,-39.23,0,*57
1484859871.53,13532,4.13,74142.0,-9.73,-38.91,-39.23,0,*53
1484859872.78,13533,4.06,74138.5,-9.73,-38.85,-39.23,0,*57
1484859874.01,13534,4.06,74140.8,-9.71,-38.85,-39.15,0,*57
1484859875.23,13535,4.13,74140.3,-9.71,-39.23,-39.35,0,*59
1484859876.42,13536,4.06,74138.8,-9.71,-38.97,-39.35,0,*54
1484859877.64,13537,4.06,74142.3,-9.71,-38.97,-39.23,0,*52
1484859878.86,13538,4.13,74142.0,-9.71,-38.79,-38.97,0,*53
1484859880.06,13539,4.06,74140.3,-9.71,-38.85,-39.35,0,*58
1484859881.29,13540,4.13,74142.3,-9.71,-38.85,-39.23,0,*51
1484859882.54,13541,4.06,74138.8,-9.71,-38.79,-39.03,0,*51
1484859883.73,13542,4.06,74138.0,-9.71,-38.97,-39.35,0,*57
1484859884.98,13543,4.13,74142.5,-9.71,-39.03,-39.23,0,*5D
1484859886.17,13544,4.13,74142.8,-9.71,-38.97,-39.35,0,*51
1484859887.42,13545,4.06,74140.5,-9.73,-39.09,-39.41,0,*57
1484859888.67,13546,4.06,74138.5,-9.71,-39.15,-39.53,0,*58
1484859889.89,13547,4.13,74140.0,-9.71,-39.35,-39.53,0,*5B
1484859891.11,13548,4.13,74140.3,-9.71,-38.97,-39.23,0,*5A
1484859892.36,13549,4.06,74142.3,-9.73,-39.09,-39.41,0,*5B
1484859893.64,13550,4.06,74142.3,-9.73,-39.23,-39.29,0,*55
1484859894.91,13551,4.06,74140.8,-9.73,-39.03,-39.29,0,*56
1484859896.18,13552,4.13,74140.3,-9.73,-38.91,-39.23,0,*55
1484859897.44,13553,4.13,74140.0,-9.73,-38.85,-39.23,0,*51
1484859898.71,13554,4.06,74142.3,-9.73,-39.03,-39.41,0,*5D
1484859899.97,13555,4.13,74144.3,-9.73,-39.09,-39.41,0,*56
1484859901.24,13556,4.06,74142.0,-9.73,-39.29,-39.59,0,*5E
1484859902.5,13557,4.06,74138.3,-9.73,-39.09,-39.41,0,*54
1484859903.73,13558,4.13,74140.3,-9.75,-39.09,-39.29,0,*53
1484859904.98,13559,4.13,74140.3,-9.75,-39.03,-39.29,0,*58
1484859906.25,13560,4.13,74136.3,-9.73,-39.03,-39.41,0,*5A
1484859907.47,13561,4.13,74146.5,-9.71,-39.03,-39.35,0,*5A
1484859908.73,13562,4.13,74142.8,-9.75,-39.41,-39.59,0,*51
1484859909.97,13563,4.06,74136.5,-9.73,-39.29,-39.47,0,*57
1484859911.19,13564,4.06,74140.8,-9.75,-39.29,-39.47,0,*56
1484859912.45,13565,4.13,74140.3,-9.73,-39.09,-39.41,0,*55
1484859913.72,13566,4.06,74138.5,-9.73,-38.91,-39.29,0,*58
1484859914.99,13567,4.06,74140.8,-9.73,-38.91,-39.23,0,*53
1484859916.25,13568,4.13,74142.5,-9.73,-39.09,-39.41,0,*58
1484859917.52,13569,4.13,74142.0,-9.73,-39.23,-39.41,0,*51
1484859918.77,13570,4.06,74138.3,-9.73,-39.09,-39.41,0,*51
1484859920.0,13571,4.13,74140.8,-9.75,-38.85,-39.23,0,*57
1484859921.28,13572,4.13,74144.3,-9.73,-38.91,-39.29,0,*5D
1484859922.53,13573,4.13,74140.8,-9.75,-38.91,-39.29,0,*5A
1484859923.8,13574,4.06,74138.3,-9.73,-38.91,-39.41,0,*55
1484859925.08,13575,4.13,74140.8,-9.73,-39.41,-39.59,0,*51
1484859926.33,13576,4.06,74136.8,-9.73,-39.29,-39.47,0,*53
1484859927.57,13577,4.06,74138.3,-9.73,-39.29,-39.47,0,*52
1484859928.85,13578,4.13,74142.5,-9.73,-39.03,-39.23,0,*57
1484859930.1,13579,4.13,74140.5,-9.75,-39.03,-39.29,0,*5A
1484859931.35,13580,4.13,74142.5,-9.75,-38.91,-39.23,0,*5C
1484859932.59,13581,4.06,74138.5,-9.75,-38.91,-39.41,0,*59
1484859933.87,13582,4.06,74138.8,-9.73,-38.91,-39.29,0,*52
1484859935.14,13583,4.13,74142.0,-9.73,-39.23,-39.41,0,*55
1484859936.42,13584,4.06,74138.0,-9.73,-39.41,-39.59,0,*5F
1484859937.68,13585,4.06,74138.8,-9.75,-39.29,-39.59,0,*56
1484859938.93,13586,4.13,74138.8,-9.75,-39.23,-39.41,0,*56
1484859940.2,13587,4.13,74138.8,-9.73,-39.29,-39.41,0,*5B
1484859941.43,13588,4.13,74140.0,-9.75,-39.09,-39.41,0,*50
1484859942.65,13589,4.06,74136.8,-9.75,-39.23,-39.47,0,*5F
1484859943.9,13590,4.13,74140.5,-9.75,-39.29,-39.59,0,*52
1484859945.12,13591,4.06,74138.0,-9.75,-39.29,-39.47,0,*5C
1484859946.35,13592,4.06,74136.5,-9.75,-39.09,-39.41,0,*5B
1484859947.58,13593,4.06,74136.8,-9.75,-39.23,-39.47,0,*54
1484859948.79,13594,4.13,74142.0,-9.75,-38.85,-39.09,0,*54
1484859950.0,13595,4.13,74142.5,-9.75,-38.85,-39.09,0,*55
1484859951.25,13596,4.13,74140.3,-9.75,-38.91,-39.23,0,*5B
1484859952.52,13597,4.13,74142.0,-9.73,-39.03,-39.29,0,*5C
1484859953.8,13598,4.13,74142.5,-9.73,-39.03,-39.29,0,*53
1484859955.04,13599,4.13,74142.3,-9.75,-38.91,-39.41,0,*50
1484859956.3,13600,4.13,74142.8,-9.73,-39.09,-39.41,0,*55
1484859957.53,13601,4.13,74140.5,-9.75,-39.09,-39.41,0,*52
1484859958.76,13602,4.13,74142.3,-9.75,-39.09,-39.41,0,*51
1484859959.98,13603,4.13,74142.8,-9.75,-39.29,-39.47,0,*54
1484859961.2,13604,4.13,74136.8,-9.75,-39.29,-39.47,0,*53
1484859962.45,13605,4.13,74136.5,-9.75,-38.91,-39.29,0,*58
1484859963.67,13606,4.13,74142.0,-9.75,-38.73,-39.03,0,*5F
1484859964.9,13607,4.13,74136.8,-9.75,-38.91,-39.09,0,*58
1484859966.11,13608,4.13,74140.0,-9.75,-38.85,-39.09,0,*52
1484859967.36,13609,4.13,74140.3,-9.75,-38.91,-39.23,0,*5E
1484859968.62,13610,4.13,74136.8,-9.73,-39.09,-39.29,0,*5A
1484859969.86,13611,4.13,74140.0,-9.75,-39.03,-39.41,0,*59
1484859971.11,13612,4.13,74142.3,-9.75,-38.91,-39.29,0,*5E
1484859972.34,13613,4.13,74136.5,-9.75,-39.09,-39.41,0,*51
1484859973.57,13614,4.13,74142.0,-9.75,-39.09,-39.29,0,*58
1484859974.82,13615,4.13,74140.0,-9.75,-39.03,-39.41,0,*5D
1484859976.05,13616,4.13,74142.0,-9.75,-39.09,-39.41,0,*54
1484859977.3,13617,4.13,74138.8,-9.75,-38.91,-39.23,0,*51
1484859978.56,13618,4.13,74140.0,-9.73,-39.09,-39.23,0,*58
1484859979.81,13619,4.13,74140.0,-9.75,-39.03,-39.23,0,*55
1484859981.06,13620,4.13,74142.0,-9.75,-39.03,-39.41,0,*5B
1484859982.29,13621,4.13,74136.8,-9.75,-39.09,-39.29,0,*5E
1484859983.52,13622,4.13,74142.3,-9.75,-39.09,-39.41,0,*53
1484859984.77,13623,4.13,74140.0,-9.75,-39.03,-39.41,0,*58
1484859985.98,13624,4.13,74142.5,-9.75,-38.85,-39.09,0,*5C
1484859987.23,13625,4.13,74140.0,-9.75,-38.91,-39.23,0,*50
1484859988.5,13626,4.13,74140.0,-9.73,-38.91,-39.29,0,*5F
1484859989.75,13627,4.13,74146.0,-9.75,-38.91,-39.23,0,*52
1484859991.0,13628,4.13,74140.5,-9.75,-39.03,-39.41,0,*53
1484859992.25,13629,4.13,74140.8,-9.75,-39.03,-39.23,0,*56
1484859993.46,13630,4.13,74140.5,-9.75,-38.85,-39.09,0,*59
1484859994.73,13631,4.13,74140.8,-9.73,-39.03,-39.41,0,*5D
1484859995.98,13632,4.13,74142.8,-9.75,-39.23,-39.41,0,*5A
1484859997.21,13633,4.13,74140.3,-9.75,-39.09,-39.41,0,*53
1484859998.46,13634,4.13,74142.0,-9.75,-39.23,-39.41,0,*5C
1484859999.69,13635,4.13,74140.0,-9.75,-39.09,-39.41,0,*55
1484860000.92,13636,4.13,74140.8,-9.75,-39.09,-39.41,0,*56
1484860002.15,13637,4.13,74138.8,-9.75,-38.85,-39.29,0,*5C
1484860003.38,13638,4.13,74142.8,-9.75,-38.91,-39.09,0,*54
1484860004.61,13639,4.13,74144.0,-9.75,-38.85,-39.03,0,*5A
1484860005.83,13640,4.13,74140.5,-9.75,-38.73,-38.91,0,*57
1484860007.08,13641,4.13,74140.0,-9.75,-38.91,-39.41,0,*56
1484860008.34,13642,4.13,74138.8,-9.75,-39.03,-39.29,0,*51
1484860009.61,13643,4.13,74138.8,-9.73,-39.03,-39.29,0,*56
1484860010.86,13644,4.13,74144.5,-9.75,-39.03,-39.41,0,*59
1484860012.11,13645,4.13,74142.3,-9.75,-39.03,-39.23,0,*5C
1484860013.36,13646,4.13,74140.3,-9.75,-39.03,-39.29,0,*55
1484860014.61,13647,4.13,74142.3,-9.75,-39.03,-39.23,0,*5E
1484860015.82,13648,4.13,74136.5,-9.75,-38.85,-39.09,0,*56
1484860017.03,13649,4.13,74136.5,-9.75,-38.85,-39.09,0,*57
1484860018.24,13650,4.13,74144.5,-9.75,-38.85,-39.09,0,*5F
1484860019.47,13651,4.13,74144.5,-9.75,-38.85,-39.03,0,*54
1484860020.7,13652,4.13,74144.5,-9.75,-38.85,-39.03,0,*57
1484860021.95,13653,4.13,74140.5,-9.75,-38.91,-39.23,0,*51
1484860023.2,13654,4.13,74140.0,-9.73,-38.91,-39.09,0,*58
1484860024.43,13655,4.13,74142.0,-9.75,-38.85,-39.23,0,*52
1484860025.68,13656,4.13,74146.3,-9.75,-38.91,-39.23,0,*54
1484860026.92,13657,4.13,74142.0,-9.73,-38.85,-39.09,0,*5E
1484860028.15,13658,4.13,74142.0,-9.75,-38.91,-39.09,0,*52
1484860029.42,13659,4.13,74142.3,-9.73,-38.91,-39.23,0,*5D
1484860030.67,13660,4.13,74140.3,-9.75,-38.91,-39.23,0,*51
1484860031.95,13661,4.13,74140.8,-9.73,-38.91,-39.29,0,*5C
1484860033.2,13662,4.13,74144.5,-9.73,-39.09,-39.41,0,*51
1484860034.47,13663,4.13,74144.0,-9.73,-39.23,-39.41,0,*58
1484860035.73,13664,4.13,74140.8,-9.75,-39.23,-39.59,0,*50
1484860036.98,13665,4.13,74142.5,-9.75,-39.23,-39.41,0,*58
1484860038.23,13666,4.13,74146.8,-9.75,-39.03,-39.41,0,*59
1484860039.48,13667,4.13,74146.0,-9.75,-39.03,-39.41,0,*58
1484860040.71,13668,4.13,74144.5,-9.75,-39.09,-39.41,0,*5D
1484860041.96,13669,4.13,74142.3,-9.75,-39.23,-39.59,0,*5D
1484860043.21,13670,4.13,74144.5,-9.75,-39.23,-39.41,0,*5C
1484860044.46,13671,4.13,74144.0,-9.75,-39.23,-39.41,0,*5D
1484860045.68,13672,4.13,74140.3,-9.75,-39.29,-39.47,0,*52
1484860046.9,13673,4.13,74142.0,-9.75,-39.23,-39.47,0,*59
1484860048.15,13674,4.13,74144.0,-9.75,-39.03,-39.41,0,*5A
1484860049.41,13675,4.13,74144.8,-9.77,-39.15,-39.47,0,*58
1484860050.65,13676,4.13,74140.5,-9.77,-39.35,-39.65,0,*59
1484860051.92,13677,4.13,74144.5,-9.77,-39.29,-39.53,0,*50
1484860053.16,13678,4.13,74146.3,-9.77,-39.35,-39.65,0,*57
1484860054.4,13679,4.13,74142.0,-9.77,-39.47,-39.65,0,*53
1484860055.61,13680,4.13,74144.0,-9.79,-39.35,-39.65,0,*5E
1484860056.88,13681,4.13,74142.8,-9.77,-39.29,-39.53,0,*59
1484860058.11,13682,4.13,74144.0,-9.77,-38.97,-39.35,0,*5E
1484860059.36,13683,4.13,74142.3,-9.77,-39.15,-39.47,0,*51
1484860060.59,13684,4.13,74142.5,-9.79,-39.15,-39.47,0,*58
1484860061.85,13685,4.13,74144.3,-9.77,-39.15,-39.47,0,*57
1484860063.07,13686,4.13,74146.3,-9.79,-39.29,-39.47,0,*55
1484860064.29,13687,4.13,74144.0,-9.77,-38.97,-39.35,0,*5B
1484860065.55,13688,4.13,74140.3,-9.77,-39.15,-39.47,0,*5A
1484860066.78,13689,4.13,74144.5,-9.77,-39.09,-39.35,0,*53
1484860068.01,13690,4.13,74144.3,-9.77,-39.09,-39.47,0,*5E
1484860069.27,13691,4.13,74140.0,-9.77,-39.15,-39.47,0,*52
1484860070.52,13692,4.13,74140.3,-9.77,-38.97,-39.29,0,*52
1484860071.78,13693,4.13,74142.0,-9.77,-38.91,-39.09,0,*57
1484860073.04,13694,4.13,74140.8,-9.77,-39.15,-39.47,0,*57
1484860074.26,13695,4.13,74142.3,-9.77,-38.97,-39.35,0,*58
1484860075.52,13696,4.13,74146.0,-9.77,-38.91,-39.09,0,*52
1484860076.78,13697,4.13,74140.3,-9.77,-38.97,-39.29,0,*57
1484860078.0,13698,4.13,74142.5,-9.79,-39.29,-39.47,0,*5A
1484860079.27,13699,4.13,74142.8,-9.77,-39.29,-39.53,0,*50
1484860080.55,13700,4.13,74146.0,-9.77,-39.29,-39.53,0,*51
1484860081.83,13701,4.13,74146.0,-9.77,-39.29,-39.53,0,*50
1484860083.1,13702,4.13,74140.5,-9.77,-39.29,-39.53,0,*53
1484860084.39,13703,4.13,74146.0,-9.77,-39.15,-39.53,0,*5D
1484860085.59,13704,4.13,74148.5,-9.79,-39.09,-39.35,0,*59
1484860086.84,13705,4.13,74142.3,-9.77,-39.35,-39.53,0,*59
1484860088.04,13706,4.13,74140.0,-9.79,-39.09,-39.35,0,*5B
1484860089.29,13707,4.13,74140.0,-9.79,-38.91,-39.29,0,*57
1484860090.53,13708,4.13,74142.8,-9.79,-38.91,-39.09,0,*5A
1484860091.79,13709,4.13,74140.3,-9.77,-38.79,-39.09,0,*53
1484860093.08,13710,4.13,74142.8,-9.77,-38.79,-39.15,0,*56
1484860094.36,13711,4.13,74138.0,-9.77,-38.79,-39.29,0,*58
1484860095.61,13712,4.13,74142.3,-9.77,-38.97,-39.29,0,*5B
1484860096.86,13713,4.13,74142.8,-9.77,-38.91,-39.35,0,*51
1484860098.12,13714,4.13,74142.0,-9.77,-38.91,-39.09,0,*59
1484860099.38,13715,4.13,74140.5,-9.77,-38.91,-38.97,0,*5E
1484860100.63,13716,4.13,74140.3,-9.77,-38.97,-39.29,0,*5F
1484860101.85,13717,4.13,74144.3,-9.79,-38.97,-39.29,0,*50
1484860103.1,13718,4.13,74146.3,-9.77,-39.29,-39.47,0,*5D
1484860104.34,13719,4.13,74148.5,-9.77,-39.35,-39.65,0,*51
1484860105.62,13720,4.13,74144.3,-9.77,-39.15,-39.53,0,*5C
1484860106.86,13721,4.13,74144.5,-9.77,-39.09,-39.35,0,*50